Weather History for Poplar Bluff, MO

Change the Weather History Date:

Monday, February 25, 2013

  Actual Average Record
Temperature  
Mean Temperature 46 °F -  
Max Temperature 54 °F 50 °F 81 °F (1918)
Min Temperature 37 °F 30 °F 7 °F (1967)
Degree Days  
Heating Degree Days 20    
Moisture  
Dew Point 33 °F    
Average Humidity 62    
Maximum Humidity 86    
Minimum Humidity 45    
Precipitation  
Precipitation 0.67 in - - ()
Sea Level Pressure  
Sea Level Pressure 29.74 in    
Wind  
Wind Speed 12 mph (NE)    
Max Wind Speed 22 mph    
Max Gust Speed 31 mph    
Visibility 9 miles    
Events Rain , Thunderstorm    
Averages and records for this station are not official NWS values.
T = Trace of Precipitation, MM = Missing Value Source: NWS Daily Summary

Daily Weather History Graph

Daily Weather History Graph

Search for Another Location

Airport:

Trip Planner

Search our weather history database for the weather conditions in past years. The results will help you decide how hot, cold, wet, or windy it might be!

Date:

Astronomy

Feb. 25, 2013 Rise Set
Actual Time 6:37 AM CST 5:52 PM CST
Civil Twilight 6:10 AM CST 6:18 PM CST
Nautical Twilight 5:40 AM CST 6:48 PM CST
Astronomical Twilight 5:10 AM CST 7:18 PM CST
Moon 6:03 PM CST (2/25) 6:08 AM CST (2/25)
Length of Visible Light 12h 07m
Length of Day
11h 15m
Full, 100% of the Moon is Illuminated
Feb 25
Full
Feb 25
Full
Mar 4
Last Quarter
Mar 11
New
Mar 19
First Quarter

Hourly Weather History & Observations

Time (CST) Temp. Windchill Dew Point Humidity Pressure Visibility Wind Dir Wind Speed Gust Speed Precip Events Conditions
12:53 AM 39.9 °F 34.5 °F 30.0 °F 68% 30.00 in 10.0 mi NE 8.1 mph - N/A   Clear
1:53 AM 39.9 °F 33.4 °F 30.0 °F 68% 29.99 in 10.0 mi NE 10.4 mph - N/A   Clear
2:53 AM 39.0 °F 32.8 °F 30.0 °F 70% 29.98 in 10.0 mi NE 9.2 mph - N/A   Clear
3:53 AM 39.0 °F 32.8 °F 28.9 °F 67% 29.98 in 10.0 mi NE 9.2 mph - N/A   Clear
4:53 AM 37.9 °F 32.7 °F 28.0 °F 68% 29.97 in 10.0 mi NE 6.9 mph - N/A   Clear
5:53 AM 37.9 °F 31.5 °F 27.0 °F 65% 29.94 in 10.0 mi NE 9.2 mph - N/A   Clear
6:53 AM 37.9 °F 30.5 °F 27.0 °F 65% 29.93 in 10.0 mi NE 11.5 mph - N/A   Clear
7:53 AM 41.0 °F 34.7 °F 28.0 °F 60% 29.96 in 10.0 mi NE 10.4 mph - N/A   Clear
8:53 AM 45.0 °F 39.3 °F 30.0 °F 56% 29.94 in 10.0 mi ENE 11.5 mph - N/A   Clear
9:53 AM 48.0 °F - 28.9 °F 48% 29.93 in 10.0 mi East 15.0 mph 25.3 mph N/A   Clear
10:53 AM 50.0 °F - 30.9 °F 48% 29.90 in 10.0 mi East 15.0 mph - N/A   Clear
11:53 AM 53.1 °F - 33.1 °F 47% 29.86 in 10.0 mi ENE 10.4 mph 20.7 mph N/A   Clear
12:53 PM 54.0 °F - 35.1 °F 49% 29.79 in 10.0 mi NE 15.0 mph 23.0 mph N/A   Clear
1:53 PM 54.0 °F - 34.0 °F 47% 29.75 in 10.0 mi NE 15.0 mph - N/A   Clear
2:53 PM 54.0 °F - 34.0 °F 47% 29.69 in 10.0 mi NE 18.4 mph - N/A   Overcast
3:53 PM 54.0 °F - 33.1 °F 45% 29.65 in 10.0 mi NE 15.0 mph 25.3 mph N/A   Overcast
4:53 PM 53.1 °F - 33.1 °F 47% 29.61 in 10.0 mi ENE 18.4 mph 25.3 mph 0.00 in   Overcast
5:53 PM 52.0 °F - 32.0 °F 47% 29.60 in 10.0 mi ENE 18.4 mph 27.6 mph N/A   Overcast
6:26 PM 51.8 °F - 32.0 °F 47% 29.57 in 10.0 mi ENE 19.6 mph 28.8 mph N/A Thunderstorm Overcast
6:53 PM 50.0 °F - 34.0 °F 54% 29.58 in 10.0 mi NE 21.9 mph 29.9 mph 0.00 in Rain , Thunderstorm Light Thunderstorms and Rain
7:12 PM 48.2 °F - 35.6 °F 62% 29.58 in 8.0 mi ENE 17.3 mph 25.3 mph 0.02 in Rain Rain
7:22 PM 48.2 °F - 35.6 °F 62% 29.56 in 10.0 mi NE 21.9 mph 28.8 mph 0.02 in Rain , Thunderstorm Light Thunderstorms and Rain
7:37 PM 48.2 °F - 35.6 °F 62% 29.60 in 9.0 mi NE 10.4 mph 26.5 mph 0.04 in Rain Light Rain
7:53 PM 46.9 °F - 37.9 °F 71% 29.60 in 5.0 mi NNE 11.5 mph 23.0 mph 0.07 in Rain Rain
8:53 PM 44.1 °F 36.8 °F 39.0 °F 82% 29.55 in 5.0 mi NNE 16.1 mph - 0.18 in Rain Rain
9:53 PM 44.1 °F 36.8 °F 39.0 °F 82% 29.50 in 6.0 mi NNE 16.1 mph 24.2 mph 0.12 in Rain Rain
10:22 PM 44.6 °F 36.9 °F 39.2 °F 81% 29.46 in 5.0 mi NE 18.4 mph 27.6 mph 0.06 in Rain Rain
10:53 PM 43.0 °F 35.1 °F 39.0 °F 86% 29.44 in 4.0 mi NE 17.3 mph 31.1 mph 0.14 in Rain Rain
11:53 PM 43.0 °F 36.0 °F 39.0 °F 86% 29.42 in 3.0 mi NE 13.8 mph 23.0 mph 0.16 in Rain Heavy Rain